Regional Weather Roundup
Issued by NWS

Home | Current Version | Previous Version | Text Only | Print | Product List | Glossary On
Versions: 1 2 3 4 5 6 7 8 9 10 11 12 13 14 15 16 17 18 19 20 21 22 23 24 25 26 27 28 29 30 31 32 33 34 35 36 37 38 39 40 41 42 43 44 45 46 47 48 49 50
000
ASUS43 KLOT 230908
RWRIL

ILLINOIS REGIONAL WEATHER ROUNDUP
NATIONAL WEATHER SERVICE CHICAGO/ROMEOVILLE IL
400 AM CDT FRI JUN 23 2017

NOTE: "FAIR" INDICATES FEW OR NO CLOUDS BELOW 12,000 FEET WITH NO
SIGNIFICANT WEATHER AND/OR OBSTRUCTIONS TO VISIBILITY.

* THESE STATIONS ARE NOT UNDER NWS QUALITY CONTROL. THEY ALSO MAY NOT
  REPORT WEATHER SUCH AS PRECIPITATION OR FOG.

ILZ001-002-007-009-015-016-024-231000-
NORTHWEST ILLINOIS

CITY           SKY/WX    TMP DP  RH WIND       PRES   REMARKS
MOLINE         TSTM      75  72  90 VRB7      29.66R VSB 1/2
STERLING*      TSTM      68  66  93 NW12G22   29.71R FOG
SAVANNA*       CLOUDY    67  66  96 CALM      29.69R
$$

ILZ003-004-008-010-011-017-018-231000-
NORTH CENTRAL ILLINOIS

CITY           SKY/WX    TMP DP  RH WIND       PRES   REMARKS
ROCKFORD       TSTM      69  66  90 N8        29.67R
FREEPORT*      CLOUDY    67  65  96 NW12      29.71R
ROCHELLE*      RAIN      71  68  90 NW18G39   29.68R
DE KALB*       RAIN      74  72  92 SW12G18   29.65F
PERU*          CLOUDY    74  72  91 SW13      29.65F
$$

ILZ005-006-012>014-019>023-231000-
NORTHEAST ILLINOIS

CITY           SKY/WX    TMP DP  RH WIND       PRES   REMARKS
CHICAGO-OHARE  CLOUDY    77  71  82 SW13      29.64S
CHICAGO-MIDWAY CLOUDY    77  72  84 SW12      29.64F
AURORA         LGT RAIN  76  73  91 SW12      29.65F
LANSING*       CLOUDY    74  69  84 SW10      29.66S
JOLIET*        CLOUDY    76  74  92 SW9       29.65S
WAUKEGAN       LGT RAIN  68  65  90 NW14G32   29.66R FOG
DUPAGE AIRPORT CLOUDY    75  73  93 SW12      29.64S
WHEELING       CLOUDY    76  73  91 W7        29.65S
MORRIS*        CLOUDY    75  72  89 SW8       29.64F
ROMEOVILLE*    CLOUDY    74  70  85 SW9       29.65S
NORTHERLY ISL    N/A     75  69  81 SW6         N/A
$$

LMZ740>746-231000-
SOUTHERN LAKE MICHIGAN

STATION/POSITION SKY/WX   TEMP    WIND        PRES    VSBY  WAVE
                          AIR SEA DIR/SP/G                  HT/PER
                          (F)     (DEG/KT/KT) (MB)    (MI)  (FT/S)
SOUTHERN BUOY              65 61  210/ 12/ 14 1003.0          3/ 4
WILMETTE HARBOR            71 63  250/  8/ 10   N/A           1/ 3
HARRISON CRIB              76     230/ 10/ 11   N/A
BURNHAM HARBOR             75                   N/A
CALUMET HARBOR             75     210/  6/ 12 1003.7F
BURNS HARBOR               74     220/ 11/ 17 1004.7F
MICHIGAN CITY              74     200/ 15/ 18   N/A
MICHIGAN CITY 6N           71 68  230/  8/ 10   N/A           1/ 3
ST. JOSEPH                 71 69  230/ 10/ 12 1003.9          2/ 3
$$

ILZ025>027-034>036-040-047-049-050-058-095>099-231000-
WEST-CENTRAL ILLINOIS

CITY           SKY/WX    TMP DP  RH WIND       PRES   REMARKS
QUINCY         CLOUDY    75  72  90 SW7       29.68S
GALESBURG*     MOCLDY    74  71  91 SW8       29.68R
MACOMB*        CLEAR     73  72  95 SW9       29.69R
JACKSONVILLE*  CLOUDY    75  73  92 S9G17     29.67F
PITTSFIELD*    PTCLDY    76  73  91 S9        29.68F
$$

ILZ028>032-037-038-041>044-048-051>054-059>061-231000-
CENTRAL ILLINOIS

CITY           SKY/WX    TMP DP  RH WIND       PRES   REMARKS
PONTIAC        CLOUDY    75  74  98 SW9       29.68S
BLOOMINGTON    CLOUDY    74  72  93 SW13      29.70S
DECATUR        CLOUDY    75  73  93 SW13      29.69F
PEORIA         CLOUDY    75  74  96 SW10      29.66F
LACON*         CLOUDY    75  73  95 SW6       29.65F
LINCOLN*       CLOUDY    76  75  98 S6        29.67F
SPRINGFIELD    CLOUDY    77  75  93 S13G21    29.67F
TAYLORVILLE    CLOUDY    74  74  98 S9        29.70F
$$

ILZ033-039-045-046-055>057-062-063-231000-
EAST-CENTRAL ILLINOIS

CITY           SKY/WX    TMP DP  RH WIND       PRES   REMARKS
CHAMPAIGN      CLOUDY    75  73  93 SW10      29.70F
RANTOUL*       CLOUDY    75  74  98 SW9       29.69F FOG
MATTOON        CLOUDY    76  75  97 SW10G20   29.71S
PARIS*         CLOUDY    75  74  97 SW12      29.72F
$$

ILZ079-100>102-231000-
SOUTHWEST ILLINOIS

CITY           SKY/WX    TMP DP  RH WIND       PRES   REMARKS
ALTON          MOCLDY    74  73  94 S3        29.71F
BELLEVILLE     CLOUDY    75  73  94 SW3       29.73S
CAHOKIA*       CLOUDY    77  72  84 CALM      29.71F
SPARTA*        CLOUDY    75  73  92 CALM      29.73F
$$

ILZ064>066-069>071-074>076-080>082-084>086-088>090-092>094-231000-
SOUTH-CENTRAL ILLINOIS

CITY           SKY/WX    TMP DP  RH WIND       PRES   REMARKS
CARBONDALE     LGT RAIN  75  75 100 S5        29.73F
CAIRO*         CLOUDY    76  74  92 S9G20     29.72F
EFFINGHAM*     CLOUDY    76  75  98 S6        29.74F
MARION         LGT RAIN  77  75  94 S6        29.74F
MT. VERNON     CLOUDY    76  74  93 CALM      29.74S
CENTRALIA*     CLOUDY    76  75  98 S5        29.72F
SALEM*         CLOUDY    77  74  91 S6        29.73F
METROPOLIS*    CLOUDY    78  74  87 S8        29.74S
$$

ILZ067-068-072-073-078-083-087-091-231000-
SOUTHEAST ILLINOIS

CITY           SKY/WX    TMP DP  RH WIND       PRES   REMARKS
LAWRENCEVILLE  CLOUDY    75  74  96 S7        29.75S
FLORA*         CLOUDY   N/A N/A N/A S6        29.74S
FAIRFIELD*     CLOUDY    76  75  97 CALM      29.74S
HARRISBURG*    CLOUDY    76  75  99 CALM      29.75F
ROBINSON*      CLOUDY    74  73  95 S9        29.75S
CARMI*         LGT RAIN  75  75  99 S10       29.74F
$$

ABBREVIATIONS USED IN REMARKS
   TC - TEMPERATURE IN CELSIUS
  WCI - WIND CHILL INDEX
   HX - HEAT INDEX
  VSB - VISIBILITY
$$





USA.gov is the U.S. government's official web portal to all federal, state and local government web resources and services.